Time,TemperatureF,DewpointF,PressureIn,WindDirection,WindDirectionDegrees,WindSpeedMPH,WindSpeedGustMPH,Humidity,HourlyPrecipIn,Conditions,Clouds,dailyrainin,SoftwareType,DateUTC
2013-02-22 00:02:00,70.0,66.0,30.05,SE,132,5.0,7.0,86,-99.99,,,-99.99,,2013-02-22 05:02:00,
2013-02-22 00:12:00,70.0,66.0,30.05,SE,125,4.0,6.0,87,-99.99,,,-99.99,,2013-02-22 05:12:00,
2013-02-22 00:22:00,70.0,66.0,30.05,SE,125,4.0,6.0,87,-99.99,,,-99.99,,2013-02-22 05:22:00,
2013-02-22 00:32:00,69.0,66.0,30.05,SE,127,3.0,5.0,89,-99.99,,,-99.99,,2013-02-22 05:32:00,
2013-02-22 00:42:00,69.0,66.0,30.04,SE,137,3.0,4.0,90,-99.99,,,-99.99,,2013-02-22 05:42:00,
2013-02-22 00:52:00,68.0,66.0,30.04,SE,135,3.0,5.0,91,-99.99,,,-99.99,,2013-02-22 05:52:00,
2013-02-22 01:02:00,68.0,66.0,30.04,SE,135,3.0,5.0,91,-99.99,,,-99.99,,2013-02-22 06:02:00,
2013-02-22 01:12:00,68.0,66.0,30.04,ESE,120,4.0,5.0,92,-99.99,,,-99.99,,2013-02-22 06:12:00,
2013-02-22 01:22:00,68.0,66.0,30.04,ESE,120,4.0,5.0,92,-99.99,,,-99.99,,2013-02-22 06:22:00,
2013-02-22 01:32:00,68.0,66.0,30.04,ESE,120,3.0,5.0,93,-99.99,,,-99.99,,2013-02-22 06:32:00,
2013-02-22 01:42:00,67.0,66.0,30.03,SE,126,4.0,5.0,93,-99.99,,,-99.99,,2013-02-22 06:42:00,
2013-02-22 01:52:00,68.0,66.0,30.03,ESE,119,4.0,5.0,93,-99.99,,,-99.99,,2013-02-22 06:52:00,
2013-02-22 02:01:00,68.0,66.0,30.03,ESE,119,4.0,5.0,93,-99.99,,,-99.99,,2013-02-22 07:01:00,
2013-02-22 02:11:00,68.0,66.0,30.03,ESE,111,4.0,6.0,92,-99.99,,,-99.99,,2013-02-22 07:11:00,
2013-02-22 02:22:00,68.0,66.0,30.03,ESE,111,4.0,6.0,92,-99.99,,,-99.99,,2013-02-22 07:22:00,
2013-02-22 02:32:00,68.0,65.0,30.03,ESE,115,4.0,6.0,91,-99.99,,,-99.99,,2013-02-22 07:32:00,
2013-02-22 02:42:00,68.0,65.0,30.02,ESE,116,4.0,6.0,91,-99.99,,,-99.99,,2013-02-22 07:42:00,
2013-02-22 02:52:00,68.0,65.0,30.02,ESE,121,5.0,7.0,90,-99.99,,,-99.99,,2013-02-22 07:52:00,
2013-02-22 03:01:00,68.0,65.0,30.02,ESE,121,5.0,7.0,90,-99.99,,,-99.99,,2013-02-22 08:01:00,
2013-02-22 03:11:00,69.0,66.0,30.01,SE,128,5.0,7.0,89,-99.99,,,-99.99,,2013-02-22 08:11:00,
2013-02-22 03:21:00,69.0,66.0,30.01,SE,128,5.0,7.0,89,-99.99,,,-99.99,,2013-02-22 08:21:00,
2013-02-22 03:32:00,69.0,66.0,30.01,SE,128,5.0,7.0,89,-99.99,,,-99.99,,2013-02-22 08:32:00,
2013-02-22 03:42:00,69.0,66.0,30.01,SE,131,4.0,6.0,91,-99.99,,,-99.99,,2013-02-22 08:42:00,
2013-02-22 03:52:00,68.0,66.0,30.01,ESE,115,3.0,5.0,92,-99.99,,,-99.99,,2013-02-22 08:52:00,
2013-02-22 04:03:00,68.0,66.0,30.01,ESE,115,3.0,5.0,92,-99.99,,,-99.99,,2013-02-22 09:03:00,
2013-02-22 04:11:00,68.0,66.0,30.01,SE,126,4.0,14.0,92,-99.99,,,-99.99,,2013-02-22 09:11:00,
2013-02-22 04:22:00,68.0,66.0,30.01,SE,126,4.0,14.0,92,-99.99,,,-99.99,,2013-02-22 09:22:00,
2013-02-22 04:32:00,68.0,66.0,30.01,SE,135,3.0,10.0,93,-99.99,,,-99.99,,2013-02-22 09:32:00,
2013-02-22 04:42:00,68.0,66.0,30.01,SE,136,4.0,10.0,94,-99.99,,,-99.99,,2013-02-22 09:42:00,
2013-02-22 04:52:00,68.0,66.0,30.01,ESE,123,12.0,42.0,94,-99.99,,,-99.99,,2013-02-22 09:52:00,
2013-02-22 05:01:00,68.0,66.0,30.01,ESE,123,12.0,42.0,94,-99.99,,,-99.99,,2013-02-22 10:01:00,
2013-02-22 05:11:00,68.0,67.0,30.01,SSE,168,6.0,32.0,95,-99.99,,,-99.99,,2013-02-22 10:11:00,
2013-02-22 05:22:00,68.0,67.0,30.01,SSE,168,6.0,32.0,95,-99.99,,,-99.99,,2013-02-22 10:22:00,
2013-02-22 05:32:00,68.0,67.0,30.02,ESE,111,6.0,31.0,95,-99.99,,,-99.99,,2013-02-22 10:32:00,
2013-02-22 05:42:00,69.0,67.0,30.02,ESE,118,3.0,6.0,95,-99.99,,,-99.99,,2013-02-22 10:42:00,
2013-02-22 05:52:00,70.0,68.0,30.03,SE,125,4.0,7.0,93,-99.99,,,-99.99,,2013-02-22 10:52:00,
2013-02-22 06:01:00,70.0,68.0,30.03,SE,125,4.0,7.0,93,-99.99,,,-99.99,,2013-02-22 11:01:00,
2013-02-22 06:11:00,70.0,68.0,30.03,SE,140,4.0,13.0,92,-99.99,,,-99.99,,2013-02-22 11:11:00,
2013-02-22 06:22:00,70.0,68.0,30.03,SE,140,4.0,13.0,92,-99.99,,,-99.99,,2013-02-22 11:22:00,
2013-02-22 06:32:00,70.0,68.0,30.03,SE,140,4.0,13.0,92,-99.99,,,-99.99,,2013-02-22 11:32:00,
2013-02-22 06:42:00,70.0,68.0,30.04,SE,130,4.0,7.0,93,-99.99,,,-99.99,,2013-02-22 11:42:00,
2013-02-22 06:52:00,70.0,68.0,30.04,SE,133,4.0,7.0,93,-99.99,,,-99.99,,2013-02-22 11:52:00,
2013-02-22 07:02:00,70.0,68.0,30.04,SE,133,4.0,7.0,93,-99.99,,,-99.99,,2013-02-22 12:02:00,
2013-02-22 07:11:00,70.0,68.0,30.05,SE,138,4.0,6.0,93,-99.99,,,-99.99,,2013-02-22 12:11:00,
2013-02-22 07:22:00,70.0,68.0,30.05,SE,138,4.0,6.0,93,-99.99,,,-99.99,,2013-02-22 12:22:00,
2013-02-22 07:32:00,69.0,68.0,30.05,SE,138,4.0,6.0,94,-99.99,,,-99.99,,2013-02-22 12:32:00,
2013-02-22 07:42:00,70.0,68.0,30.06,ESE,121,3.0,5.0,94,-99.99,,,-99.99,,2013-02-22 12:42:00,
2013-02-22 07:52:00,70.0,68.0,30.06,ESE,120,4.0,7.0,93,-99.99,,,-99.99,,2013-02-22 12:52:00,
2013-02-22 08:02:00,70.0,68.0,30.06,ESE,120,4.0,7.0,93,-99.99,,,-99.99,,2013-02-22 13:02:00,
2013-02-22 08:11:00,72.0,69.0,30.07,SE,133,3.0,6.0,90,-99.99,,,-99.99,,2013-02-22 13:11:00,
2013-02-22 08:22:00,72.0,69.0,30.07,SE,133,3.0,6.0,90,-99.99,,,-99.99,,2013-02-22 13:22:00,
2013-02-22 08:32:00,72.0,69.0,30.07,SE,133,3.0,6.0,90,-99.99,,,-99.99,,2013-02-22 13:32:00,
2013-02-22 08:42:00,72.0,69.0,30.07,SE,133,3.0,6.0,90,-99.99,,,-99.99,,2013-02-22 13:42:00,
2013-02-22 09:32:00,75.0,70.0,30.07,SSE,147,11.0,18.0,84,-99.99,,,-99.99,,2013-02-22 14:32:00,
2013-02-22 09:42:00,76.0,70.0,30.08,SSE,150,11.0,18.0,80,-99.99,,,-99.99,,2013-02-22 14:42:00,
2013-02-22 09:53:00,76.0,70.0,30.08,SSE,149,12.0,17.0,80,-99.99,,,-99.99,,2013-02-22 14:53:00,
2013-02-22 10:02:00,76.0,70.0,30.08,SSE,149,12.0,17.0,80,-99.99,,,-99.99,,2013-02-22 15:02:00,
2013-02-22 10:12:00,78.0,70.0,30.08,SSE,154,12.0,20.0,76,-99.99,,,-99.99,,2013-02-22 15:12:00,
2013-02-22 10:22:00,78.0,70.0,30.08,SSE,154,12.0,20.0,76,-99.99,,,-99.99,,2013-02-22 15:22:00,
2013-02-22 10:32:00,78.0,69.0,30.09,SSE,156,12.0,18.0,74,-99.99,,,-99.99,,2013-02-22 15:32:00,
2013-02-22 10:42:00,78.0,70.0,30.09,SSE,151,12.0,19.0,74,-99.99,,,-99.99,,2013-02-22 15:42:00,
2013-02-22 10:52:00,78.0,69.0,30.09,SSE,154,11.0,18.0,75,-99.99,,,-99.99,,2013-02-22 15:52:00,
2013-02-22 11:02:00,78.0,69.0,30.09,SSE,154,11.0,18.0,75,-99.99,,,-99.99,,2013-02-22 16:02:00,
2013-02-22 11:12:00,79.0,70.0,30.08,SSE,150,13.0,21.0,74,-99.99,,,-99.99,,2013-02-22 16:12:00,
2013-02-22 11:22:00,79.0,70.0,30.08,SSE,150,13.0,21.0,74,-99.99,,,-99.99,,2013-02-22 16:22:00,
2013-02-22 11:32:00,79.0,70.0,30.09,SSE,153,12.0,20.0,73,-99.99,,,-99.99,,2013-02-22 16:32:00,
2013-02-22 11:42:00,79.0,70.0,30.09,SSE,149,13.0,21.0,72,-99.99,,,-99.99,,2013-02-22 16:42:00,
2013-02-22 11:52:00,80.0,70.0,30.08,SSE,157,12.0,22.0,71,-99.99,,,-99.99,,2013-02-22 16:52:00,
2013-02-22 12:01:00,80.0,70.0,30.08,SSE,157,12.0,22.0,71,-99.99,,,-99.99,,2013-02-22 17:01:00,
2013-02-22 12:11:00,80.0,70.0,30.08,SSE,162,13.0,22.0,70,-99.99,,,-99.99,,2013-02-22 17:11:00,
2013-02-22 12:22:00,80.0,70.0,30.08,SSE,162,13.0,22.0,70,-99.99,,,-99.99,,2013-02-22 17:22:00,
2013-02-22 12:32:00,79.0,70.0,30.07,SSE,154,12.0,18.0,72,-99.99,,,-99.99,,2013-02-22 17:32:00,
2013-02-22 12:42:00,80.0,70.0,30.07,SSE,160,13.0,20.0,71,-99.99,,,-99.99,,2013-02-22 17:42:00,
2013-02-22 12:52:00,79.0,70.0,30.06,SSE,148,12.0,19.0,72,-99.99,,,-99.99,,2013-02-22 17:52:00,
2013-02-22 13:00:00,80.0,70.0,30.05,SSE,151,14.0,22.0,70,-99.99,,,-99.99,,2013-02-22 18:00:00,
2013-02-22 13:02:00,79.0,70.0,30.06,SSE,148,12.0,19.0,72,-99.99,,,-99.99,,2013-02-22 18:02:00,
2013-02-22 13:12:00,79.0,70.0,30.06,SSE,149,13.0,18.0,72,-99.99,,,-99.99,,2013-02-22 18:12:00,
2013-02-22 13:23:00,79.0,70.0,30.06,SSE,149,13.0,18.0,72,-99.99,,,-99.99,,2013-02-22 18:23:00,
2013-02-22 13:32:00,80.0,70.0,30.05,SSE,151,14.0,22.0,70,-99.99,,,-99.99,,2013-02-22 18:32:00,
2013-02-22 13:42:00,80.0,70.0,30.05,SSE,151,14.0,22.0,70,-99.99,,,-99.99,,2013-02-22 18:42:00,
2013-02-22 13:52:00,80.0,70.0,30.05,SSE,151,14.0,22.0,70,-99.99,,,-99.99,,2013-02-22 18:52:00,
2013-02-22 14:42:00,80.0,70.0,30.03,SSE,150,14.0,23.0,70,-99.99,,,-99.99,,2013-02-22 19:42:00,
2013-02-22 14:52:00,80.0,70.0,30.03,SSE,154,14.0,20.0,70,-99.99,,,-99.99,,2013-02-22 19:52:00,
2013-02-22 15:01:00,80.0,70.0,30.03,SSE,154,14.0,20.0,70,-99.99,,,-99.99,,2013-02-22 20:01:00,
2013-02-22 15:11:00,80.0,70.0,30.03,SSE,152,13.0,22.0,70,-99.99,,,-99.99,,2013-02-22 20:11:00,
2013-02-22 15:21:00,80.0,70.0,30.03,SSE,152,13.0,22.0,70,-99.99,,,-99.99,,2013-02-22 20:21:00,
2013-02-22 15:32:00,80.0,70.0,30.03,SSE,152,13.0,22.0,70,-99.99,,,-99.99,,2013-02-22 20:32:00,
2013-02-22 15:42:00,80.0,70.0,30.02,SSE,151,13.0,18.0,71,-99.99,,,-99.99,,2013-02-22 20:42:00,
2013-02-22 15:52:00,80.0,70.0,30.02,SE,140,13.0,20.0,71,-99.99,,,-99.99,,2013-02-22 20:52:00,
2013-02-22 16:02:00,80.0,70.0,30.02,SE,140,13.0,20.0,71,-99.99,,,-99.99,,2013-02-22 21:02:00,
2013-02-22 16:11:00,80.0,70.0,30.02,SE,146,13.0,20.0,72,-99.99,,,-99.99,,2013-02-22 21:11:00,
2013-02-22 16:21:00,80.0,70.0,30.02,SE,146,13.0,20.0,72,-99.99,,,-99.99,,2013-02-22 21:21:00,
2013-02-22 16:32:00,80.0,70.0,30.02,SE,146,13.0,20.0,72,-99.99,,,-99.99,,2013-02-22 21:32:00,
2013-02-22 16:42:00,80.0,70.0,30.02,SSE,159,12.0,19.0,70,-99.99,,,-99.99,,2013-02-22 21:42:00,
2013-02-22 16:52:00,79.0,70.0,30.02,SE,143,12.0,19.0,71,-99.99,,,-99.99,,2013-02-22 21:52:00,
2013-02-22 17:01:00,79.0,70.0,30.02,SE,143,12.0,19.0,71,-99.99,,,-99.99,,2013-02-22 22:01:00,
2013-02-22 17:11:00,79.0,69.0,30.02,SSE,147,13.0,21.0,72,-99.99,,,-99.99,,2013-02-22 22:11:00,
2013-02-22 17:21:00,79.0,69.0,30.02,SSE,147,13.0,21.0,72,-99.99,,,-99.99,,2013-02-22 22:21:00,
2013-02-22 17:32:00,79.0,69.0,30.02,SSE,147,13.0,21.0,72,-99.99,,,-99.99,,2013-02-22 22:32:00,
2013-02-22 17:42:00,78.0,69.0,30.02,SSE,150,13.0,20.0,74,-99.99,,,-99.99,,2013-02-22 22:42:00,
2013-02-22 17:52:00,77.0,69.0,30.02,SSE,148,14.0,22.0,76,-99.99,,,-99.99,,2013-02-22 22:52:00,
2013-02-22 18:01:00,77.0,69.0,30.02,SSE,148,14.0,22.0,76,-99.99,,,-99.99,,2013-02-22 23:01:00,
2013-02-22 18:11:00,77.0,69.0,30.02,SSE,150,14.0,19.0,77,-99.99,,,-99.99,,2013-02-22 23:11:00,
2013-02-22 18:21:00,77.0,69.0,30.02,SSE,150,14.0,19.0,77,-99.99,,,-99.99,,2013-02-22 23:21:00,
2013-02-22 18:32:00,76.0,69.0,30.02,SSE,147,11.0,17.0,79,-99.99,,,-99.99,,2013-02-22 23:32:00,
2013-02-22 18:42:00,75.0,69.0,30.03,SSE,147,13.0,20.0,82,-99.99,,,-99.99,,2013-02-22 23:42:00,
2013-02-22 18:52:00,74.0,69.0,30.03,SSE,148,12.0,19.0,83,-99.99,,,-99.99,,2013-02-22 23:52:00,
2013-02-22 19:02:00,74.0,69.0,30.03,SSE,148,12.0,19.0,83,-99.99,,,-99.99,,2013-02-23 00:02:00,
2013-02-22 19:11:00,74.0,69.0,30.03,SSE,148,11.0,16.0,83,-99.99,,,-99.99,,2013-02-23 00:11:00,
2013-02-22 19:21:00,74.0,69.0,30.03,SSE,148,11.0,16.0,83,-99.99,,,-99.99,,2013-02-23 00:21:00,
2013-02-22 19:32:00,74.0,69.0,30.03,SSE,147,10.0,18.0,85,-99.99,,,-99.99,,2013-02-23 00:32:00,
2013-02-22 19:42:00,74.0,70.0,30.03,SSE,149,12.0,19.0,87,-99.99,,,-99.99,,2013-02-23 00:42:00,
2013-02-22 19:52:00,74.0,70.0,30.04,SE,144,11.0,18.0,88,-99.99,,,-99.99,,2013-02-23 00:52:00,
2013-02-22 20:01:00,74.0,70.0,30.04,SE,144,11.0,18.0,88,-99.99,,,-99.99,,2013-02-23 01:01:00,
2013-02-22 20:11:00,74.0,70.0,30.04,SE,143,12.0,21.0,88,-99.99,,,-99.99,,2013-02-23 01:11:00,
2013-02-22 20:21:00,74.0,70.0,30.04,SE,143,12.0,21.0,88,-99.99,,,-99.99,,2013-02-23 01:21:00,
2013-02-22 20:32:00,74.0,70.0,30.04,SE,142,11.0,18.0,88,-99.99,,,-99.99,,2013-02-23 01:32:00,
2013-02-22 20:42:00,73.0,70.0,30.05,SE,141,10.0,16.0,88,-99.99,,,-99.99,,2013-02-23 01:42:00,
2013-02-22 20:52:00,73.0,70.0,30.05,SE,146,11.0,16.0,89,-99.99,,,-99.99,,2013-02-23 01:52:00,
2013-02-22 21:01:00,73.0,70.0,30.05,SE,146,11.0,16.0,89,-99.99,,,-99.99,,2013-02-23 02:01:00,
2013-02-22 21:11:00,73.0,70.0,30.05,SE,143,11.0,17.0,88,-99.99,,,-99.99,,2013-02-23 02:11:00,
2013-02-22 21:21:00,73.0,70.0,30.05,SE,143,11.0,17.0,88,-99.99,,,-99.99,,2013-02-23 02:21:00,
2013-02-22 21:32:00,73.0,70.0,30.05,SE,140,10.0,16.0,88,-99.99,,,-99.99,,2013-02-23 02:32:00,
2013-02-22 21:42:00,73.0,70.0,30.05,SE,143,11.0,17.0,88,-99.99,,,-99.99,,2013-02-23 02:42:00,
2013-02-22 21:52:00,73.0,70.0,30.05,SE,146,10.0,16.0,88,-99.99,,,-99.99,,2013-02-23 02:52:00,
2013-02-22 22:02:00,73.0,70.0,30.05,SE,146,10.0,16.0,88,-99.99,,,-99.99,,2013-02-23 03:02:00,
2013-02-22 22:11:00,73.0,70.0,30.06,SE,142,10.0,15.0,88,-99.99,,,-99.99,,2013-02-23 03:11:00,
2013-02-22 22:22:00,73.0,70.0,30.06,SE,142,10.0,15.0,88,-99.99,,,-99.99,,2013-02-23 03:22:00,
2013-02-22 22:32:00,73.0,70.0,30.06,SSE,147,8.0,12.0,88,-99.99,,,-99.99,,2013-02-23 03:32:00,
2013-02-22 22:42:00,73.0,70.0,30.06,SE,146,9.0,14.0,88,-99.99,,,-99.99,,2013-02-23 03:42:00,
2013-02-22 22:52:00,73.0,70.0,30.06,SE,145,10.0,16.0,88,-99.99,,,-99.99,,2013-02-23 03:52:00,
2013-02-22 23:01:00,73.0,70.0,30.06,SE,145,10.0,16.0,88,-99.99,,,-99.99,,2013-02-23 04:01:00,
2013-02-22 23:11:00,73.0,70.0,30.05,SE,145,10.0,15.0,87,-99.99,,,-99.99,,2013-02-23 04:11:00,
2013-02-22 23:21:00,73.0,70.0,30.05,SE,145,10.0,15.0,87,-99.99,,,-99.99,,2013-02-23 04:21:00,
2013-02-22 23:32:00,73.0,70.0,30.05,SE,146,11.0,17.0,88,-99.99,,,-99.99,,2013-02-23 04:32:00,
2013-02-22 23:42:00,73.0,70.0,30.05,SSE,149,12.0,19.0,89,-99.99,,,-99.99,,2013-02-23 04:42:00,
2013-02-22 23:52:00,73.0,70.0,30.05,SSE,149,12.0,19.0,89,-99.99,,,-99.99,,2013-02-23 04:52:00,